Regional Weather Roundup
Issued by NWS

Home | Current Version | Previous Version | Graphics & Text | Print | Product List | Glossary On
Versions: 1 2 3 4 5 6 7 8 9 10 11 12 13 14 15 16 17 18 19 20 21 22 23 24 25 26 27 28 29 30 31 32 33 34 35 36 37 38 39 40 41 42 43 44 45 46 47 48 49 50
000
ASUS43 KOAX 010610
RWRNE

WEATHER ROUNDUP FOR NEBRASKA
NATIONAL WEATHER SERVICE OMAHA NE
1200 AM CST SUN FEB 01 2015

NOTES: SATELLITE DATA IS BEING USED TO AUGMENT CLOUD COVER ABOVE
       12000 FEET.
       "FAIR" INDICATES FEW OR NO CLOUDS BELOW 12,000 FEET WITH NO
       SIGNIFICANT WEATHER AND/OR OBSTRUCTIONS TO VISIBILITY.

  * THESE STATIONS DO NOT REPORT WEATHER SUCH AS RAIN...SNOW OR FOG.

NEZ001>004-019>022-054>056-010700-
NEBRASKA PANHANDLE

CITY           SKY/WX    TMP DP  RH WIND       PRES   REMARKS
SCOTTSBLUFF    CLOUDY    24  21  88 N10       30.03R WCI  14
6HR MIN TEMP:  24; 6HR MAX TEMP:  32; 6HR PCP: TRACE;

ALLIANCE       CLOUDY    18  15  88 N14       30.00R WCI   4
6HR MIN TEMP:  18; 6HR MAX TEMP:  26; 6HR PCP: TRACE;

CHADRON        LGT SNOW  17  14  88 NE12      30.11R FOG     WCI   4
6HR MIN TEMP:  18; 6HR MAX TEMP:  25; 6HR PCP: TRACE;

KIMBALL        CLOUDY    24  24  99 N10       29.94R FOG     WCI  13
SIDNEY         CLOUDY    21  17  84 N15       29.97R WCI   8
6HR MIN TEMP:  21; 6HR MAX TEMP:  31; 6HR PCP:  0.01;

$$

NEZ057>060-069>072-079>082-010700-
SOUTHWEST NEBRASKA

CITY           SKY/WX    TMP DP  RH WIND       PRES   REMARKS
NORTH PLATTE   CLOUDY    19  14  81 N23G32    29.95R HAZE    WCI   2
6HR MIN TEMP:  19; 6HR MAX TEMP:  28; 6HR PCP:  0.11;

IMPERIAL       LGT SNOW  22  18  85 N25       29.94R FOG     WCI   5
6HR MIN TEMP:  22; 6HR MAX TEMP:  32; 6HR PCP:  0.06;

LEXINGTON      LGT SNOW  23  20  89 N22G30    29.90R WCI   8
MCCOOK         LGT SNOW  25  21  85 N24G35    29.89R FOG     WCI   9
6HR MIN TEMP:  25; 6HR MAX TEMP:  33; 6HR PCP:  0.07;

OGALLALA       LGT SNOW  19  17  88 N21       29.98R WCI   3
$$

NEZ005>010-023>029-035>040-094-010700-
NORTH CENTRAL NEBRASKA

CITY           SKY/WX    TMP DP  RH WIND       PRES   REMARKS
VALENTINE      LGT SNOW  12   8  84 N15       30.09R VSB 3/4 WCI  -4
6HR MIN TEMP:  13; 6HR MAX TEMP:  21; 6HR PCP:  0.20;

AINSWORTH      LGT SNOW  15  12  90 N23       30.04R VSB 1   WCI  -4
BROKEN BOW     LGT SNOW  21  17  84 N25G33    29.92R FOG     WCI   4
6HR MIN TEMP:  21; 6HR MAX TEMP:  29; 6HR PCP:  0.02;

O`NEILL        LGT SNOW  23  21  93 N24G30    29.99R WCI   7
ORD            LGT SNOW  23  19  85 N21G29    29.92R FOG     WCI   8
6HR MIN TEMP:  23; 6HR MAX TEMP:  32; 6HR PCP:  0.04;

THEDFORD       LGT SNOW  17  15  90 N15G24    30.01R WCI   2
$$

NEZ041-046>049-061>064-073>077-083>087-010700-
SOUTH CENTRAL NEBRASKA

CITY           SKY/WX    TMP DP  RH WIND       PRES   REMARKS
GRAND ISLAND   LGT SNOW  30  28  92 N18       29.85R VSB 3/4 WCI  18
6HR MIN TEMP:  30; 6HR MAX TEMP:  32; 6HR PCP:  0.28;

AURORA         LGT SNOW  32  32 100 N8        29.82S WCI  24
HASTINGS       LGT SNOW  31  29  92 N12       29.81S VSB 1   WCI  22
6HR MIN TEMP:  31; 6HR MAX TEMP:  32; 6HR PCP:  0.21;

HEBRON         LGT SNOW  32  31  97 CALM      29.80S
HOLDREGE       LGT SNOW  25  23  92 N20G26    29.86R WCI  11
KEARNEY *      CLOUDY    25  21  86 N20G25    29.86R WCI  11
YORK           LGT SNOW  32  32 100 NE7       29.83S WCI  26
$$

NEZ011>018-030>034-042>045-010700-
NORTHEAST NEBRASKA

CITY           SKY/WX    TMP DP  RH WIND       PRES   REMARKS
NORFOLK        LGT SNOW  29  27  92 N14       29.89F VSB 3/4 WCI  18
6HR MIN TEMP:  29; 6HR MAX TEMP:  33; 6HR PCP:  0.27;

ALBION         LGT SNOW  28  24  87 N12       29.89S WCI  17
BLAIR          LGT SNOW  33  32  96 NE7       29.85F WCI  27
FREMONT        LGT SNOW  33  33  99 NE6       29.86F WCI  28
TEKAMAH        LGT SNOW  33  32  96 N7        29.89F VSB 3/4 WCI  27
6HR MIN TEMP:  33; 6HR MAX TEMP:  33; 6HR PCP:  0.31;

WAYNE          LGT SNOW  29  28  95 NE15      29.92S WCI  18
$$

NEZ050>053-065>068-078-088>093-010700-
SOUTHEAST NEBRASKA

CITY           SKY/WX    TMP DP  RH WIND       PRES   REMARKS
LINCOLN        LGT SNOW  32  31  96 NE7       29.85F VSB 1   WCI  26
6HR MIN TEMP:  32; 6HR MAX TEMP:  33; 6HR PCP:  0.37;

OMAHA EPPLEY   LGT SNOW  33  32  96 CALM      29.87F VSB 3/4
6HR MIN TEMP:  33; 6HR MAX TEMP:  33; 6HR PCP:  0.36;

BEATRICE       LGT SNOW  32  32 100 CALM      29.81S
FALLS CITY     LGT SNOW  32  32 100 SE7       29.83F VSB 3/4 WCI  26
6HR MIN TEMP:  32; 6HR MAX TEMP:  33; 6HR PCP:  0.08;

NEBRASKA CITY  LGT SNOW  32  32 100 SE7       29.84F WCI  26
PLATTSMOUTH    LGT SNOW  32  31  96 E5        29.84F WCI  27
$$

NEZ044-045-051>053-067-010700-
OMAHA AREA

CITY           SKY/WX    TMP DP  RH WIND       PRES   REMARKS
OMAHA EPPLEY   LGT SNOW  33  32  96 CALM      29.87F VSB 3/4
6HR MIN TEMP:  33; 6HR MAX TEMP:  33; 6HR PCP:  0.36;

BLAIR          LGT SNOW  33  32  96 NE7       29.85F WCI  27
FREMONT        LGT SNOW  33  33  99 NE6       29.86F WCI  28
MILLARD        LGT SNOW  33  32  96 CALM      29.86F
OFFUTT AFB     LGT SNOW  32  32  98 NE5       29.85F FOG     WCI  28
PLATTSMOUTH    LGT SNOW  32  31  96 E5        29.84F WCI  27
WAHOO          LGT SNOW  33  31  94 NE9       29.85F WCI  25
$$



USA.gov is the U.S. government's official web portal to all federal, state and local government web resources and services.